| time (UTC) | temp F | wind direction | speed MPH | gust MPH | rain 1hr in | rain 24hr in | rain mn in | humidity % | barometer mb |
| 20260906030023 | 88 | 115 | 2.0 | 6.0 | 0.00 | 0.00 | 0.00 | 78 | 1012.9 |
| 20260906024522 | 88 | 152 | 3.0 | 10.0 | 0.00 | 0.00 | 0.00 | 78 | 1012.4 |
| 20260906023022 | 89 | 143 | 6.0 | 14.0 | 0.00 | 0.00 | 0.00 | 77 | 1012.1 |
| 20260906021522 | 90 | 118 | 4.0 | 9.0 | 0.00 | 0.00 | 0.00 | 77 | 1011.9 |
| 20260906020021 | 90 | 131 | 4.0 | 15.0 | 0.00 | 0.00 | 0.00 | 75 | 1011.5 |
| 20260906014523 | 91 | 92 | 6.0 | 13.0 | 0.00 | 0.00 | 0.00 | 72 | 1011.4 |
| 20260906013027 | 92 | 84 | 6.0 | 13.0 | 0.00 | 0.00 | 0.00 | 70 | 1011.1 |
| 20260906011521 | 93 | 115 | 1.0 | 6.0 | 0.00 | 0.00 | 0.00 | 68 | 1011.0 |
| 20260906010019 | 93 | 97 | 0.0 | 4.0 | 0.00 | 0.00 | 0.00 | 67 | 1010.9 |
| 20260906004518 | 93 | 101 | 0.0 | 3.0 | 0.00 | 0.00 | 0.00 | 68 | 1011.0 |
| 20260906003017 | 94 | 91 | 2.0 | 9.0 | 0.00 | 0.00 | 0.00 | 68 | 1010.6 |
| 20260906001517 | 94 | 122 | 3.0 | 12.0 | 0.00 | 0.00 | 0.00 | 67 | 1010.6 |
| 20260906000016 | 94 | 113 | 4.0 | 11.0 | 0.00 | 0.00 | 0.00 | 67 | 1010.6 |
| 20260905234515 | 95 | 118 | 0.0 | 12.0 | 0.00 | 0.00 | 0.00 | 66 | 1010.6 |
| 20260905231515 | 98 | 71 | 5.0 | 12.0 | 0.00 | 0.00 | 0.00 | 60 | 1010.3 |
| 20260905230014 | 100 | 191 | 1.0 | 9.0 | 0.00 | 0.00 | 0.00 | 56 | 1010.1 |
| 20260905224513 | 100 | 89 | 3.0 | 10.0 | 0.00 | 0.00 | 0.00 | 54 | 1010.1 |
| 20260905223012 | 100 | 153 | 2.0 | 7.0 | 0.00 | 0.00 | 0.00 | 54 | 1010.0 |
| 20260905221513 | 100 | 87 | 2.0 | 7.0 | 0.00 | 0.00 | 0.00 | 55 | 1010.1 |
| 20260905220009 | 100 | 180 | 4.0 | 8.0 | 0.00 | 0.00 | 0.00 | 55 | 1010.3 |
| 20260905214508 | 100 | 157 | 2.0 | 5.0 | 0.00 | 0.00 | 0.00 | 55 | 1010.4 |
| 20260905213008 | 98 | 159 | 4.0 | 8.0 | 0.00 | 0.00 | 0.00 | 55 | 1010.5 |
| 20260905211517 | 99 | 177 | 2.0 | 9.0 | 0.00 | 0.00 | 0.00 | 55 | 1010.5 |
| 20260905210008 | 99 | 219 | 4.0 | 8.0 | 0.00 | 0.00 | 0.00 | 56 | 1010.7 |
| 20260905204503 | 97 | 96 | 3.0 | 9.0 | 0.00 | 0.00 | 0.00 | 57 | 1011.0 |
| 20260905203103 | 99 | 113 | 4.0 | 8.0 | 0.00 | 0.00 | 0.00 | 57 | 1011.3 |
| 20260905201557 | 100 | 175 | 3.0 | 9.0 | 0.00 | 0.00 | 0.00 | 58 | 1011.8 |
| 20260905200103 | 98 | 184 | 3.0 | 6.0 | 0.00 | 0.00 | 0.00 | 61 | 1011.9 |
| 20260905194551 | 97 | 112 | 5.0 | 10.0 | 0.00 | 0.00 | 0.00 | 61 | 1012.3 |
| 20260905193105 | 97 | 63 | 5.0 | 9.0 | 0.00 | 0.00 | 0.00 | 62 | 1012.5 |
| 20260905191546 | 96 | 61 | 1.0 | 9.0 | 0.00 | 0.00 | 0.00 | 63 | 1012.8 |
| 20260905190042 | 96 | 179 | 2.0 | 7.0 | 0.00 | 0.00 | 0.00 | 64 | 1013.0 |
| 20260905184536 | 96 | 205 | 5.0 | 8.0 | 0.00 | 0.00 | 0.00 | 63 | 1013.4 |
| 20260905183036 | 95 | 192 | 6.0 | 10.0 | 0.00 | 0.00 | 0.00 | 63 | 1013.7 |
| 20260905181534 | 95 | 240 | 4.0 | 9.0 | 0.00 | 0.00 | 0.00 | 64 | 1014.0 |
| 20260905180032 | 96 | 144 | 1.0 | 7.0 | 0.00 | 0.00 | 0.00 | 64 | 1014.3 |
| 20260905174529 | 94 | 182 | 1.0 | 10.0 | 0.00 | 0.00 | 0.00 | 66 | 1014.3 |
| 20260905173027 | 93 | 235 | 3.0 | 7.0 | 0.00 | 0.00 | 0.00 | 69 | 1014.6 |
| 20260905171532 | 94 | 133 | 3.0 | 8.0 | 0.00 | 0.00 | 0.00 | 68 | 1014.9 |
| 20260905170019 | 94 | 144 | 2.0 | 7.0 | 0.00 | 0.00 | 0.00 | 68 | 1015.3 |
| 20260905164522 | 92 | 184 | 3.0 | 9.0 | 0.00 | 0.00 | 0.00 | 71 | 1015.1 |
| 20260905163011 | 91 | 108 | 2.0 | 10.0 | 0.00 | 0.00 | 0.00 | 75 | 1015.1 |
| 20260905161608 | 89 | 148 | 3.0 | 8.0 | 0.00 | 0.00 | 0.00 | 78 | 1015.3 |
| 20260905160015 | 89 | 205 | 7.0 | 10.0 | 0.00 | 0.00 | 0.00 | 79 | 1015.4 |
| 20260905154504 | 89 | 128 | 3.0 | 10.0 | 0.00 | 0.00 | 0.00 | 81 | 1015.3 |
| 20260905153001 | 88 | 196 | 2.0 | 9.0 | 0.00 | 0.00 | 0.00 | 83 | 1015.3 |
| 20260905151556 | 86 | 150 | 2.0 | 9.0 | 0.00 | 0.00 | 0.00 | 85 | 1015.2 |
| 20260905150105 | 85 | 189 | 5.0 | 8.0 | 0.00 | 0.00 | 0.00 | 87 | 1015.2 |
| 20260905144551 | 85 | 157 | 1.0 | 7.0 | 0.00 | 0.00 | 0.00 | 90 | 1015.2 |
| 20260905143050 | 85 | 196 | 2.0 | 5.0 | 0.00 | 0.00 | 0.00 | 91 | 1015.3 |
| 20260905141547 | 84 | 151 | 0.0 | 3.0 | 0.00 | 0.00 | 0.00 | 94 | 1015.2 |
| 20260905140045 | 83 | 156 | 1.0 | 5.0 | 0.00 | 0.00 | 0.00 | 96 | 1015.1 |
| 20260905134547 | 81 | 105 | 1.0 | 4.0 | 0.00 | 0.00 | 0.00 | 98 | 1014.9 |
| 20260905133042 | 80 | 91 | 3.0 | 7.0 | 0.00 | 0.00 | 0.00 | 99 | 1014.9 |
| 20260905131540 | 79 | 110 | 0.0 | 0.0 | 0.00 | 0.00 | 0.00 | 99 | 1014.8 |
| 20260905130039 | 78 | 117 | 0.0 | 3.0 | 0.00 | 0.00 | 0.00 | 100 | 1014.6 |
| 20260905124539 | 77 | 124 | 0.0 | 0.0 | 0.00 | 0.01 | 0.00 | 100 | 1014.5 |
| 20260905123037 | 76 | 124 | 0.0 | 0.0 | 0.00 | 0.01 | 0.00 | 100 | 1014.4 |
| 20260905121536 | 76 | 125 | 0.0 | 0.0 | 0.00 | 0.01 | 0.00 | 100 | 1014.3 |
| 20260905120035 | 76 | 140 | 0.0 | 0.0 | 0.00 | 0.01 | 0.00 | 99 | 1014.2 |
| 20260905114534 | 77 | 167 | 0.0 | 0.0 | 0.00 | 0.01 | 0.00 | 99 | 1014.1 |
| 20260905113033 | 77 | 167 | 0.0 | 0.0 | 0.00 | 0.01 | 0.00 | 99 | 1014.0 |
| 20260905111531 | 78 | 167 | 0.0 | 0.0 | 0.00 | 0.01 | 0.00 | 99 | 1013.9 |
| 20260905110030 | 78 | 167 | 0.0 | 0.0 | 0.00 | 0.01 | 0.00 | 99 | 1013.9 |
| 20260905104530 | 78 | 167 | 0.0 | 0.0 | 0.00 | 0.01 | 0.00 | 98 | 1013.6 |
| 20260905103034 | 78 | 167 | 0.0 | 0.0 | 0.00 | 0.01 | 0.00 | 98 | 1013.6 |
| 20260905101530 | 79 | 167 | 0.0 | 0.0 | 0.00 | 0.01 | 0.00 | 99 | 1013.7 |
| 20260905094526 | 79 | 167 | 0.0 | 0.0 | 0.00 | 0.01 | 0.00 | 98 | 1013.5 |
| 20260905093025 | 79 | 167 | 0.0 | 0.0 | 0.00 | 0.01 | 0.00 | 98 | 1013.6 |
| 20260905091524 | 79 | 167 | 0.0 | 0.0 | 0.00 | 0.01 | 0.00 | 98 | 1013.6 |
| 20260905090032 | 79 | 167 | 0.0 | 0.0 | 0.00 | 0.01 | 0.00 | 97 | 1013.6 |
| 20260905084522 | 79 | 167 | 0.0 | 0.0 | 0.00 | 0.01 | 0.00 | 97 | 1013.6 |
| 20260905083021 | 79 | 167 | 0.0 | 0.0 | 0.00 | 0.01 | 0.00 | 97 | 1013.7 |
| 20260905081519 | 79 | 167 | 0.0 | 0.0 | 0.00 | 0.01 | 0.00 | 97 | 1013.8 |
| 20260905080019 | 80 | 167 | 0.0 | 0.0 | 0.00 | 0.01 | 0.00 | 96 | 1014.0 |
| 20260905074516 | 80 | 167 | 0.0 | 0.0 | 0.00 | 0.01 | 0.00 | 96 | 1014.0 |
| 20260905073014 | 80 | 167 | 0.0 | 0.0 | 0.00 | 0.01 | 0.00 | 96 | 1014.1 |
| 20260905071512 | 80 | 165 | 0.0 | 0.0 | 0.00 | 0.01 | 0.00 | 95 | 1014.2 |
| 20260905070011 | 80 | 165 | 0.0 | 0.0 | 0.00 | 0.01 | 0.00 | 95 | 1014.3 |
| 20260905064510 | 81 | 168 | 0.0 | 0.0 | 0.00 | 0.01 | 0.00 | 95 | 1014.3 |
| 20260905063009 | 81 | 169 | 0.0 | 2.0 | 0.00 | 0.01 | 0.00 | 94 | 1014.3 |
| 20260905061507 | 81 | 169 | 1.0 | 4.0 | 0.00 | 0.01 | 0.00 | 94 | 1014.4 |
| 20260905060006 | 82 | 171 | 2.0 | 4.0 | 0.00 | 0.01 | 0.00 | 93 | 1014.5 |
| 20260905054504 | 82 | 184 | 0.0 | 4.0 | 0.00 | 0.01 | 0.00 | 93 | 1014.3 |
| 20260905053003 | 82 | 176 | 0.0 | 8.0 | 0.00 | 0.01 | 0.00 | 93 | 1014.4 |
| 20260905051501 | 82 | 168 | 1.0 | 5.0 | 0.00 | 0.01 | 0.00 | 92 | 1014.3 |
| 20260905044559 | 83 | 167 | 2.0 | 7.0 | 0.00 | 0.01 | 0.01 | 90 | 1014.4 |
| 20260905043100 | 83 | 148 | 1.0 | 3.0 | 0.00 | 0.01 | 0.01 | 89 | 1014.3 |
| 20260905041557 | 83 | 119 | 1.0 | 3.0 | 0.00 | 0.01 | 0.01 | 88 | 1014.4 |
| 20260905040100 | 83 | 121 | 1.0 | 4.0 | 0.00 | 0.01 | 0.01 | 87 | 1014.2 |
| 20260905033055 | 84 | 140 | 2.0 | 6.0 | 0.00 | 0.01 | 0.01 | 86 | 1014.2 |
| 20260905031555 | 84 | 123 | 3.0 | 7.0 | 0.00 | 0.01 | 0.01 | 85 | 1014.1 |